Princeton, MN

7:44 AM CST on December 03, 2016 (GMT -0600)
Princeton Municipal

Weather History for KPNM - July, 2013

Change the Weather History Date:

Wednesday, July 24, 2013

  Actual Average Record
Temperature  
Mean Temperature 66 °F -  
Max Temperature 78 °F 79 °F 93 °F (2006)
Min Temperature 53 °F 57 °F 46 °F (2004)
Growing Degree Days 16 (Base 50)    
Moisture  
Dew Point 54 °F    
Average Humidity 71    
Maximum Humidity 94    
Minimum Humidity 39    
Precipitation  
Precipitation 0.00 in - - ()
Sea Level Pressure  
Sea Level Pressure 30.03 in    
Wind  
Wind Speed 1 mph (South)    
Max Wind Speed 6 mph    
Max Gust Speed -    
Visibility 10 miles    
Events Rain    
Averages and records for this station are not official NWS values.
T = Trace of Precipitation, MM = Missing Value Source: NWS Daily Summary

Daily Weather History Graph

Daily Weather History Graph

Search for Another Location

Airport or City:

Trip Planner

Search our weather history database for the weather conditions in past years. The results will help you decide how hot, cold, wet, or windy it might be!

Date:

Astronomy

Jul. 24, 2013 Rise Set
Actual Time 5:49 AM CDT 8:51 PM CDT
Civil Twilight 5:14 AM CDT 9:26 PM CDT
Nautical Twilight 4:28 AM CDT 10:12 PM CDT
Astronomical Twilight 3:33 AM CDT 11:06 PM CDT
Moon 9:46 PM CDT (7/24) 8:20 AM CDT (7/24)
Length of Visible Light 16h 12m
Length of Day
15h 02m
Waning Gibbous, 94% of the Moon is Illuminated
Jul 24
Waning Gibbous
Jul 29
Last Quarter
Aug 6
New
Aug 14
First Quarter
Aug 20
Full

Hourly Weather History & Observations

Time (CDT) Temp. Dew Point Humidity Pressure Visibility Wind Dir Wind Speed Gust Speed Precip Events Conditions
12:11 AM 53.6 °F 51.8 °F 94% 30.03 in 10.0 mi Calm Calm - N/A   Clear
12:32 AM 53.6 °F 51.8 °F 94% 30.04 in 10.0 mi Calm Calm - N/A   Clear
12:51 AM 53.6 °F 51.8 °F 94% 30.04 in 10.0 mi Calm Calm - N/A   Scattered Clouds
1:11 AM 55.4 °F 53.6 °F 94% 30.04 in 10.0 mi Calm Calm - N/A   Overcast
1:31 AM 55.4 °F 53.6 °F 94% 30.05 in 10.0 mi Calm Calm - N/A   Overcast
1:51 AM 55.4 °F 53.6 °F 94% 30.05 in 10.0 mi Calm Calm - N/A   Mostly Cloudy
2:11 AM 55.4 °F 53.6 °F 94% 30.05 in 10.0 mi Calm Calm - N/A   Mostly Cloudy
2:31 AM 55.4 °F 53.6 °F 94% 30.05 in 10.0 mi Calm Calm - N/A   Scattered Clouds
2:52 AM 53.6 °F 51.8 °F 94% 30.04 in 10.0 mi Calm Calm - N/A   Scattered Clouds
3:11 AM 55.4 °F 53.6 °F 94% 30.05 in 10.0 mi Calm Calm - N/A   Scattered Clouds
3:31 AM 55.4 °F 53.6 °F 94% 30.04 in 10.0 mi Calm Calm - N/A   Mostly Cloudy
3:51 AM 57.2 °F 53.6 °F 88% 30.04 in 10.0 mi Calm Calm - N/A   Overcast
4:11 AM 57.2 °F 53.6 °F 88% 30.04 in 10.0 mi Calm Calm - N/A   Overcast
4:32 AM 57.2 °F 53.6 °F 88% 30.04 in 10.0 mi Calm Calm - N/A   Overcast
4:51 AM 57.2 °F 53.6 °F 88% 30.05 in 10.0 mi Calm Calm - N/A   Overcast
5:11 AM 57.2 °F 53.6 °F 88% 30.05 in 10.0 mi Calm Calm - N/A   Overcast
5:32 AM 57.2 °F 53.6 °F 88% 30.06 in 10.0 mi Calm Calm - N/A   Overcast
5:51 AM 57.2 °F 53.6 °F 88% 30.06 in 10.0 mi Calm Calm - N/A   Overcast
6:11 AM 57.2 °F 53.6 °F 88% 30.06 in 10.0 mi Calm Calm - N/A   Overcast
6:32 AM 59.0 °F 53.6 °F 82% 30.07 in 10.0 mi Calm Calm - N/A   Overcast
6:51 AM 59.0 °F 53.6 °F 82% 30.07 in 10.0 mi West 5.8 mph - N/A   Overcast
7:11 AM 59.0 °F 53.6 °F 82% 30.08 in 10.0 mi Calm Calm - N/A   Overcast
7:32 AM 60.8 °F 53.6 °F 77% 30.08 in 10.0 mi Calm Calm - N/A   Overcast
7:51 AM 60.8 °F 55.4 °F 82% 30.08 in 10.0 mi SW 3.5 mph - N/A   Overcast
8:11 AM 60.8 °F 53.6 °F 77% 30.08 in 10.0 mi Calm Calm - N/A   Overcast
8:31 AM 60.8 °F 55.4 °F 82% 30.08 in 10.0 mi Calm Calm - N/A   Overcast
8:51 AM 62.6 °F 55.4 °F 77% 30.09 in 7.0 mi NW 3.5 mph - N/A   Drizzle
9:11 AM 62.6 °F 53.6 °F 72% 30.09 in 5.0 mi NNW 3.5 mph - N/A   Drizzle
9:31 AM 62.6 °F 53.6 °F 72% 30.09 in 10.0 mi Calm Calm - N/A   Overcast
9:51 AM 62.6 °F 55.4 °F 77% 30.08 in 10.0 mi Calm Calm - N/A   Overcast
10:11 AM 64.4 °F 53.6 °F 68% 30.08 in 10.0 mi Calm Calm - N/A   Overcast
10:31 AM 64.4 °F 51.8 °F 64% 30.08 in 10.0 mi Calm Calm - N/A   Overcast
10:51 AM 64.4 °F 53.6 °F 68% 30.08 in 7.0 mi South 3.5 mph - N/A Rain Rain
11:11 AM 62.6 °F 53.6 °F 72% 30.07 in 10.0 mi Calm Calm - N/A   Overcast
11:31 AM 64.4 °F 53.6 °F 68% 30.07 in 10.0 mi ESE 3.5 mph - N/A   Mostly Cloudy
11:51 AM 68.0 °F 55.4 °F 64% 30.07 in 10.0 mi ESE 4.6 mph - N/A   Scattered Clouds
12:11 PM 69.8 °F 55.4 °F 60% 30.06 in 10.0 mi SE 4.6 mph - N/A   Scattered Clouds
12:31 PM 71.6 °F 55.4 °F 57% 30.06 in 10.0 mi SSE 3.5 mph - N/A   Clear
12:51 PM 71.6 °F 55.4 °F 57% 30.06 in 10.0 mi WSW 5.8 mph - N/A   Scattered Clouds
1:11 PM 73.4 °F 55.4 °F 53% 30.05 in 10.0 mi ESE 4.6 mph - N/A   Scattered Clouds
1:31 PM 73.4 °F 53.6 °F 50% 30.04 in 10.0 mi SW 4.6 mph - N/A   Scattered Clouds
1:51 PM 75.2 °F 53.6 °F 47% 30.04 in 10.0 mi SSW 3.5 mph - N/A   Mostly Cloudy
2:11 PM 73.4 °F 53.6 °F 50% 30.03 in 10.0 mi Calm Calm - N/A   Scattered Clouds
2:36 PM 73.4 °F 51.8 °F 47% 30.02 in 10.0 mi NNW 4.6 mph - N/A   Mostly Cloudy
2:51 PM 73.4 °F 51.8 °F 47% 30.03 in 10.0 mi East 3.5 mph - N/A   Mostly Cloudy
3:11 PM 75.2 °F 51.8 °F 44% 30.02 in 10.0 mi Calm Calm - N/A   Scattered Clouds
3:31 PM 73.4 °F 53.6 °F 50% 30.02 in 10.0 mi Calm Calm - N/A   Scattered Clouds
4:11 PM 78.8 °F 51.8 °F 39% 30.01 in 10.0 mi WSW 4.6 mph - N/A   Scattered Clouds
4:31 PM 75.2 °F 51.8 °F 44% 30.01 in 10.0 mi SW 4.6 mph - N/A   Scattered Clouds
4:51 PM 75.2 °F 51.8 °F 44% 30.00 in 10.0 mi Calm Calm - N/A   Scattered Clouds
5:11 PM 73.4 °F 51.8 °F 47% 30.00 in 10.0 mi Calm Calm - N/A   Mostly Cloudy
5:31 PM 75.2 °F 51.8 °F 44% 29.99 in 10.0 mi Calm Calm - N/A   Mostly Cloudy
5:51 PM 77.0 °F 51.8 °F 41% 29.99 in 10.0 mi SSW 4.6 mph - N/A   Scattered Clouds
6:11 PM 75.2 °F 53.6 °F 47% 29.99 in 10.0 mi SSW 4.6 mph - N/A   Clear
6:31 PM 73.4 °F 55.4 °F 53% 29.99 in 10.0 mi Calm Calm - N/A   Scattered Clouds
6:51 PM 75.2 °F 53.6 °F 47% 29.98 in 10.0 mi Calm Calm - N/A   Scattered Clouds
7:11 PM 75.2 °F 55.4 °F 50% 29.98 in 10.0 mi SSE 4.6 mph - N/A   Clear
7:31 PM 73.4 °F 55.4 °F 53% 29.97 in 10.0 mi SSE 3.5 mph - N/A   Clear
7:51 PM 73.4 °F 57.2 °F 57% 29.97 in 10.0 mi SSE 4.6 mph - N/A   Clear
8:11 PM 71.6 °F 57.2 °F 60% 29.97 in 10.0 mi SSE 4.6 mph - N/A   Clear
8:31 PM 69.8 °F 57.2 °F 64% 29.97 in 10.0 mi SSE 3.5 mph - N/A   Clear
8:51 PM 66.2 °F 57.2 °F 73% 29.97 in 10.0 mi Calm Calm - N/A   Clear
9:12 PM 64.4 °F 57.2 °F 77% 29.97 in 10.0 mi Calm Calm - N/A   Clear
9:31 PM 64.4 °F 57.2 °F 77% 29.98 in 10.0 mi Calm Calm - N/A   Clear
9:51 PM 62.6 °F 57.2 °F 82% 29.98 in 10.0 mi SSE 3.5 mph - N/A   Clear
10:12 PM 62.6 °F 57.2 °F 82% 29.98 in 10.0 mi Calm Calm - N/A   Clear
10:31 PM 64.4 °F 57.2 °F 77% 29.98 in 10.0 mi Calm Calm - N/A   Clear
10:51 PM 64.4 °F 57.2 °F 77% 29.97 in 10.0 mi South 4.6 mph - N/A   Clear
11:12 PM 66.2 °F 57.2 °F 73% 29.96 in 10.0 mi South 4.6 mph - N/A   Mostly Cloudy
11:31 PM 66.2 °F 57.2 °F 73% 29.96 in 10.0 mi SSE 3.5 mph - N/A   Overcast
11:51 PM 66.2 °F 55.4 °F 68% 29.97 in 10.0 mi SE 3.5 mph - N/A   Overcast